This is the latest recevied weather packets stored in our database for station/object VK3BKO-13. If no packets are shown the sender has not sent any weather packets the latest 10 day(s).
| Time | Temp. | Humidity | Pressure | Rain* | Wind** | Luminosity | Snow |
|---|---|---|---|---|---|---|---|
| 1788135423 | 54° F | 78% | 774 mmHg | 0 in | - | 167 W/m² | - |
| 1788134523 | 54° F | 79% | 774 mmHg | 0 in | - | 146 W/m² | - |
| 1788133623 | 54° F | 79% | 774.2 mmHg | 0 in | - | 129 W/m² | - |
| 1788132722 | 54° F | 81% | 774 mmHg | 0 in | - | 121 W/m² | - |
| 1788131823 | 53° F | 82% | 774.2 mmHg | 0 in | - | 105 W/m² | - |
| 1788130923 | 53° F | 84% | 774 mmHg | 0 in | - | 112 W/m² | - |
| 1788130023 | 53° F | 85% | 774 mmHg | 0 in | - | 91 W/m² | - |
| 1788129123 | 52° F | 87% | 774 mmHg | 0 in | - | 74 W/m² | - |
| 1788128223 | 52° F | 87% | 774 mmHg | 0 in | - | 78 W/m² | - |
| 1788127323 | 52° F | 88% | 774 mmHg | 0 in | - | 56 W/m² | - |
| 1788126423 | 52° F | 89% | 774.2 mmHg | 0 in | - | 60 W/m² | - |
| 1788125523 | 51° F | 90% | 773.7 mmHg | 0 in | - | 33 W/m² | - |
| 1788124623 | 51° F | 90% | 773.7 mmHg | 0 in | - | 23 W/m² | - |
| 1788123723 | 51° F | 90% | 774 mmHg | 0 in | - | 11 W/m² | - |
| 1788122823 | 51° F | 90% | 773.7 mmHg | 0 in | - | 3 W/m² | - |
| 1788121923 | 51° F | 90% | 773.7 mmHg | 0 in | - | 0 W/m² | - |
| 1788121023 | 51° F | 90% | 773.7 mmHg | 0 in | - | 0 W/m² | - |
| 1788120123 | 52° F | 90% | 773.7 mmHg | 0 in | - | 0 W/m² | - |
| 1788119223 | 52° F | 89% | 773.7 mmHg | 0 in | - | 0 W/m² | - |
| 1788118323 | 52° F | 89% | 773.7 mmHg | 0 in | - | 0 W/m² | - |
| 1788117423 | 52° F | 86% | 773.7 mmHg | 0 in | - | 0 W/m² | - |
| 1788116523 | 52° F | 87% | 773.5 mmHg | 0 in | - | 0 W/m² | - |
| 1788115623 | 52° F | 86% | 773.5 mmHg | 0 in | - | 0 W/m² | - |
| 1788114723 | 52° F | 86% | 773.5 mmHg | 0 in | - | 0 W/m² | - |
| 1788113823 | 52° F | 86% | 773.7 mmHg | 0 in | - | 0 W/m² | - |
* Rain latest hour (hover to see other rain measurements)
** Current wind speed in m/s (hover to see current wind gust speed)